| time (UTC) | temp F | wind direction | speed MPH | gust MPH | rain 1hr in | rain 24hr in | rain mn in | humidity % | barometer mb |
| 20260509223816 | 73 | 286 | 0.0 | 0.0 | 0.00 | 0.08 | 0.03 | 82 | 1011.5 |
| 20260509223332 | 73 | 286 | 0.0 | 0.0 | 0.00 | 0.08 | 0.03 | 81 | 1011.7 |
| 20260509223059 | 72 | 287 | 0.0 | 0.0 | 0.00 | 0.08 | 0.03 | 81 | 1011.5 |
| 20260509223012 | 72 | 291 | 0.0 | 0.0 | 0.00 | 0.08 | 0.03 | 81 | 1011.9 |
| 20260509222815 | 73 | 287 | 0.0 | 0.0 | 0.00 | 0.08 | 0.03 | 81 | 1011.6 |
| 20260509222336 | 73 | 287 | 0.0 | 0.0 | 0.00 | 0.08 | 0.03 | 81 | 1011.5 |
| 20260509221839 | 73 | 287 | 0.0 | 0.0 | 0.00 | 0.08 | 0.03 | 81 | 1011.6 |
| 20260509221555 | 73 | 288 | 0.0 | 3.0 | 0.00 | 0.08 | 0.03 | 81 | 1011.6 |
| 20260509221508 | 73 | 292 | 0.0 | 3.0 | 0.00 | 0.08 | 0.03 | 81 | 1012.0 |
| 20260509221321 | 73 | 284 | 0.0 | 3.0 | 0.00 | 0.08 | 0.03 | 81 | 1011.7 |
| 20260509220844 | 73 | 266 | 0.0 | 0.0 | 0.00 | 0.08 | 0.03 | 81 | 1011.6 |
| 20260509220327 | 74 | 360 | 0.0 | 0.0 | 0.00 | 0.08 | 0.03 | 81 | 1011.7 |
| 20260509220018 | 73 | 359 | 0.0 | 0.0 | 0.00 | 0.08 | 0.03 | 81 | 1012.0 |
| 20260509220016 | 73 | 355 | 0.0 | 0.0 | 0.00 | 0.08 | 0.03 | 81 | 1011.7 |
| 20260509215831 | 74 | 355 | 0.0 | 0.0 | 0.00 | 0.08 | 0.03 | 81 | 1011.6 |
| 20260509215334 | 74 | 342 | 0.0 | 1.0 | 0.00 | 0.08 | 0.03 | 81 | 1011.6 |
| 20260509214838 | 74 | 17 | 0.0 | 1.0 | 0.00 | 0.08 | 0.03 | 82 | 1011.7 |
| 20260509214541 | 74 | 17 | 0.0 | 1.0 | 0.00 | 0.08 | 0.03 | 82 | 1011.8 |
| 20260509214508 | 74 | 163 | 0.0 | 0.0 | 0.00 | 0.08 | 0.03 | 81 | 1012.2 |
| 20260509214321 | 74 | 180 | 0.0 | 0.0 | 0.00 | 0.08 | 0.03 | 82 | 1011.8 |
| 20260509213823 | 74 | 180 | 0.0 | 0.0 | 0.00 | 0.08 | 0.03 | 82 | 1011.8 |
| 20260509213308 | 74 | 180 | 0.0 | 0.0 | 0.00 | 0.08 | 0.03 | 81 | 1012.0 |
| 20260509213029 | 74 | 180 | 0.0 | 0.0 | 0.00 | 0.08 | 0.03 | 81 | 1012.0 |
| 20260509213023 | 74 | 179 | 0.0 | 0.0 | 0.00 | 0.08 | 0.03 | 81 | 1012.4 |
| 20260509212812 | 74 | 180 | 0.0 | 0.0 | 0.01 | 0.08 | 0.03 | 81 | 1012.1 |
| 20260509212313 | 74 | 180 | 0.0 | 0.0 | 0.01 | 0.08 | 0.03 | 81 | 1012.2 |
| 20260509211817 | 74 | 180 | 0.0 | 0.0 | 0.01 | 0.08 | 0.03 | 81 | 1012.2 |
| 20260509211512 | 74 | 179 | 0.0 | 0.0 | 0.01 | 0.08 | 0.03 | 81 | 1012.4 |
| 20260509211509 | 74 | 180 | 0.0 | 0.0 | 0.01 | 0.08 | 0.03 | 81 | 1012.1 |
| 20260509211320 | 75 | 180 | 0.0 | 0.0 | 0.01 | 0.08 | 0.03 | 81 | 1012.1 |
| 20260509210824 | 75 | 180 | 0.0 | 0.0 | 0.01 | 0.08 | 0.03 | 81 | 1011.7 |
| 20260509210308 | 75 | 180 | 0.0 | 0.0 | 0.01 | 0.08 | 0.03 | 82 | 1011.8 |
| 20260509210100 | 74 | 180 | 0.0 | 0.0 | 0.01 | 0.08 | 0.03 | 81 | 1011.8 |
| 20260509210014 | 74 | 180 | 0.0 | 0.0 | 0.01 | 0.08 | 0.03 | 81 | 1012.2 |
| 20260509205812 | 75 | 180 | 0.0 | 0.0 | 0.01 | 0.08 | 0.03 | 81 | 1011.9 |
| 20260509205334 | 75 | 180 | 0.0 | 0.0 | 0.01 | 0.08 | 0.03 | 81 | 1011.9 |
| 20260509204815 | 75 | 206 | 0.0 | 0.0 | 0.01 | 0.08 | 0.03 | 81 | 1011.9 |
| 20260509204514 | 74 | 206 | 0.0 | 0.0 | 0.01 | 0.08 | 0.03 | 81 | 1012.0 |
| 20260509204320 | 75 | 206 | 0.0 | 0.0 | 0.01 | 0.08 | 0.03 | 81 | 1012.0 |
| 20260509203824 | 75 | 144 | 0.0 | 0.0 | 0.01 | 0.08 | 0.03 | 81 | 1011.9 |
| 20260509203308 | 75 | 217 | 0.0 | 0.0 | 0.01 | 0.08 | 0.03 | 80 | 1011.9 |
| 20260509203117 | 75 | 217 | 0.0 | 0.0 | 0.01 | 0.08 | 0.03 | 80 | 1011.9 |
| 20260509203016 | 75 | 219 | 0.0 | 0.0 | 0.01 | 0.08 | 0.03 | 80 | 1012.3 |
| 20260509203002 | 75 | 217 | 0.0 | 0.0 | 0.01 | 0.08 | 0.03 | 80 | 1011.9 |
| 20260509202812 | 75 | 217 | 0.0 | 0.0 | 0.00 | 0.07 | 0.02 | 80 | 1012.0 |
| 20260509202314 | 76 | 189 | 0.0 | 1.0 | 0.00 | 0.07 | 0.02 | 80 | 1011.9 |
| 20260509201838 | 76 | 189 | 0.0 | 1.0 | 0.00 | 0.07 | 0.02 | 80 | 1011.8 |
| 20260509201520 | 75 | 189 | 0.0 | 1.0 | 0.00 | 0.07 | 0.02 | 80 | 1011.8 |
| 20260509201512 | 75 | 189 | 0.0 | 1.0 | 0.00 | 0.07 | 0.02 | 79 | 1012.2 |
| 20260509201321 | 76 | 189 | 0.0 | 1.0 | 0.00 | 0.07 | 0.02 | 80 | 1011.8 |
| 20260509200826 | 76 | 92 | 0.0 | 1.0 | 0.00 | 0.07 | 0.02 | 80 | 1011.8 |
| 20260509200325 | 76 | 63 | 0.0 | 1.0 | 0.00 | 0.07 | 0.02 | 80 | 1011.8 |
| 20260509200013 | 76 | 276 | 0.0 | 0.0 | 0.00 | 0.07 | 0.02 | 80 | 1012.2 |
| 20260509200006 | 76 | 272 | 0.0 | 0.0 | 0.00 | 0.07 | 0.02 | 80 | 1011.9 |
| 20260509195810 | 77 | 272 | 0.0 | 0.0 | 0.00 | 0.07 | 0.02 | 80 | 1011.9 |
| 20260509195312 | 77 | 272 | 0.0 | 1.0 | 0.00 | 0.07 | 0.02 | 80 | 1012.1 |
| 20260509194815 | 77 | 272 | 0.0 | 1.0 | 0.00 | 0.07 | 0.02 | 80 | 1012.0 |
| 20260509194550 | 76 | 246 | 0.0 | 0.0 | 0.00 | 0.07 | 0.02 | 80 | 1012.0 |
| 20260509194513 | 76 | 248 | 0.0 | 0.0 | 0.00 | 0.07 | 0.02 | 80 | 1012.4 |
| 20260509194318 | 77 | 246 | 0.0 | 0.0 | 0.00 | 0.07 | 0.02 | 80 | 1012.0 |
| 20260509193822 | 77 | 246 | 0.0 | 0.0 | 0.00 | 0.07 | 0.02 | 80 | 1011.8 |
| 20260509193325 | 77 | 246 | 0.0 | 0.0 | 0.00 | 0.07 | 0.02 | 79 | 1011.6 |
| 20260509193039 | 76 | 246 | 0.0 | 0.0 | 0.00 | 0.07 | 0.02 | 79 | 1011.7 |
| 20260509193025 | 77 | 248 | 0.0 | 2.0 | 0.00 | 0.07 | 0.02 | 79 | 1012.1 |
| 20260509192810 | 77 | 246 | 0.0 | 2.0 | 0.00 | 0.07 | 0.02 | 79 | 1011.8 |
| 20260509192312 | 77 | 246 | 0.0 | 2.0 | 0.00 | 0.07 | 0.02 | 79 | 1011.8 |
| 20260509191833 | 77 | 310 | 0.0 | 0.0 | 0.00 | 0.07 | 0.02 | 78 | 1011.8 |
| 20260509191518 | 77 | 315 | 0.0 | 2.0 | 0.00 | 0.07 | 0.02 | 78 | 1012.1 |
| 20260509191510 | 77 | 310 | 0.0 | 2.0 | 0.00 | 0.07 | 0.02 | 78 | 1011.7 |
| 20260509191312 | 77 | 310 | 0.0 | 2.0 | 0.00 | 0.07 | 0.02 | 78 | 1011.8 |
| 20260509190816 | 77 | 280 | 0.0 | 4.0 | 0.00 | 0.07 | 0.02 | 77 | 1011.7 |
| 20260509190339 | 77 | 313 | 0.0 | 4.0 | 0.00 | 0.07 | 0.02 | 77 | 1011.8 |
| 20260509190044 | 77 | 350 | 0.0 | 3.0 | 0.00 | 0.07 | 0.02 | 77 | 1011.8 |
| 20260509190019 | 77 | 356 | 0.0 | 3.0 | 0.00 | 0.07 | 0.02 | 77 | 1012.1 |
| 20260509185823 | 77 | 124 | 0.0 | 3.0 | 0.00 | 0.07 | 0.02 | 77 | 1011.9 |
| 20260509185325 | 77 | 347 | 0.0 | 7.0 | 0.00 | 0.07 | 0.02 | 77 | 1011.9 |
| 20260509184808 | 77 | 67 | 1.0 | 7.0 | 0.00 | 0.07 | 0.02 | 77 | 1011.8 |
| 20260509184556 | 77 | 57 | 0.0 | 7.0 | 0.00 | 0.07 | 0.02 | 78 | 1011.8 |
| 20260509184531 | 77 | 61 | 0.0 | 6.0 | 0.00 | 0.07 | 0.02 | 77 | 1012.2 |
| 20260509184312 | 77 | 277 | 0.0 | 2.0 | 0.00 | 0.07 | 0.02 | 78 | 1011.8 |
| 20260509183814 | 78 | 265 | 0.0 | 3.0 | 0.00 | 0.07 | 0.02 | 79 | 1011.9 |
| 20260509183337 | 78 | 103 | 0.0 | 1.0 | 0.00 | 0.07 | 0.02 | 80 | 1011.9 |
| 20260509182817 | 78 | 46 | 0.0 | 1.0 | 0.00 | 0.07 | 0.02 | 79 | 1012.0 |
| 20260509182320 | 78 | 219 | 0.0 | 2.0 | 0.00 | 0.07 | 0.02 | 79 | 1012.1 |
| 20260509181824 | 78 | 64 | 0.0 | 3.0 | 0.00 | 0.07 | 0.02 | 79 | 1012.1 |
| 20260509181609 | 78 | 76 | 0.0 | 4.0 | 0.00 | 0.07 | 0.02 | 79 | 1012.1 |
| 20260509181518 | 77 | 72 | 0.0 | 4.0 | 0.00 | 0.07 | 0.02 | 78 | 1012.4 |
| 20260509181307 | 78 | 87 | 1.0 | 4.0 | 0.00 | 0.07 | 0.02 | 79 | 1012.1 |
| 20260509180811 | 78 | 241 | 0.0 | 4.0 | 0.00 | 0.07 | 0.02 | 79 | 1012.2 |
| 20260509180315 | 78 | 67 | 0.0 | 3.0 | 0.00 | 0.07 | 0.02 | 79 | 1012.2 |
| 20260509180020 | 78 | 297 | 0.0 | 4.0 | 0.00 | 0.07 | 0.02 | 78 | 1012.5 |
| 20260509180010 | 78 | 292 | 0.0 | 3.0 | 0.00 | 0.07 | 0.02 | 79 | 1012.2 |
| 20260509175820 | 78 | 293 | 0.0 | 4.0 | 0.00 | 0.07 | 0.02 | 79 | 1012.2 |
| 20260509175323 | 78 | 304 | 0.0 | 4.0 | 0.00 | 0.07 | 0.02 | 78 | 1012.2 |
| 20260509174826 | 78 | 234 | 1.0 | 7.0 | 0.00 | 0.07 | 0.02 | 78 | 1012.2 |
| 20260509174529 | 78 | 126 | 0.0 | 7.0 | 0.00 | 0.07 | 0.02 | 78 | 1012.2 |
| 20260509174522 | 78 | 124 | 0.0 | 8.0 | 0.00 | 0.07 | 0.02 | 77 | 1012.6 |
| 20260509174309 | 78 | 105 | 3.0 | 8.0 | 0.00 | 0.07 | 0.02 | 78 | 1012.2 |
| 20260509173812 | 78 | 284 | 1.0 | 8.0 | 0.00 | 0.07 | 0.02 | 78 | 1012.3 |
| 20260509173316 | 78 | 67 | 1.0 | 6.0 | 0.00 | 0.07 | 0.02 | 78 | 1012.2 |
| 20260509173030 | 78 | 237 | 1.0 | 6.0 | 0.00 | 0.07 | 0.02 | 78 | 1012.2 |
| 20260509173019 | 78 | 239 | 0.0 | 6.0 | 0.00 | 0.07 | 0.02 | 77 | 1012.6 |
| 20260509172821 | 78 | 236 | 1.0 | 6.0 | 0.00 | 0.07 | 0.02 | 78 | 1012.2 |
| 20260509172324 | 78 | 277 | 1.0 | 7.0 | 0.00 | 0.07 | 0.02 | 78 | 1012.3 |
| 20260509171809 | 78 | 215 | 1.0 | 7.0 | 0.00 | 0.07 | 0.02 | 78 | 1012.4 |
| 20260509171543 | 78 | 300 | 0.0 | 7.0 | 0.00 | 0.07 | 0.02 | 78 | 1012.4 |
| 20260509171517 | 78 | 237 | 0.0 | 7.0 | 0.00 | 0.07 | 0.02 | 77 | 1012.8 |
| 20260509171313 | 78 | 219 | 2.0 | 6.0 | 0.00 | 0.07 | 0.02 | 77 | 1012.4 |
| 20260509170817 | 79 | 234 | 1.0 | 6.0 | 0.00 | 0.07 | 0.02 | 77 | 1012.4 |
| 20260509170323 | 79 | 226 | 1.0 | 6.0 | 0.00 | 0.07 | 0.02 | 76 | 1012.4 |
| 20260509170050 | 79 | 313 | 1.0 | 7.0 | 0.00 | 0.07 | 0.02 | 76 | 1012.4 |
| 20260509170009 | 79 | 231 | 1.0 | 7.0 | 0.00 | 0.07 | 0.02 | 75 | 1012.8 |
| 20260509165827 | 80 | 225 | 1.0 | 7.0 | 0.00 | 0.07 | 0.02 | 76 | 1012.4 |
| 20260509165310 | 80 | 225 | 1.0 | 6.0 | 0.00 | 0.07 | 0.02 | 76 | 1012.5 |
| 20260509164813 | 80 | 249 | 0.0 | 6.0 | 0.00 | 0.07 | 0.02 | 75 | 1012.6 |
| 20260509164550 | 80 | 261 | 0.0 | 6.0 | 0.00 | 0.07 | 0.02 | 75 | 1012.5 |
| 20260509164504 | 80 | 18 | 0.0 | 6.0 | 0.00 | 0.07 | 0.02 | 75 | 1012.9 |
| 20260509164316 | 81 | 266 | 0.0 | 6.0 | 0.00 | 0.07 | 0.02 | 75 | 1012.5 |
| 20260509163819 | 81 | 264 | 1.0 | 6.0 | 0.00 | 0.07 | 0.02 | 75 | 1012.6 |
| 20260509163322 | 81 | 230 | 0.0 | 6.0 | 0.00 | 0.07 | 0.02 | 76 | 1012.6 |
| 20260509163048 | 80 | 241 | 1.0 | 8.0 | 0.00 | 0.07 | 0.02 | 76 | 1012.7 |
| 20260509163004 | 80 | 306 | 1.0 | 8.0 | 0.00 | 0.07 | 0.02 | 76 | 1013.1 |
| 20260509162847 | 80 | 231 | 1.0 | 8.0 | 0.00 | 0.07 | 0.02 | 77 | 1012.8 |
| 20260509162308 | 80 | 30 | 0.0 | 4.0 | 0.00 | 0.07 | 0.02 | 77 | 1012.8 |
| 20260509161811 | 79 | 253 | 1.0 | 9.0 | 0.00 | 0.07 | 0.02 | 77 | 1012.8 |
| 20260509161520 | 79 | 220 | 0.0 | 9.0 | 0.00 | 0.07 | 0.02 | 77 | 1012.7 |
| 20260509161511 | 79 | 221 | 0.0 | 9.0 | 0.00 | 0.07 | 0.02 | 77 | 1013.1 |
| 20260509161335 | 79 | 89 | 2.0 | 9.0 | 0.00 | 0.07 | 0.02 | 77 | 1012.8 |
| 20260509160818 | 79 | 248 | 1.0 | 7.0 | 0.00 | 0.07 | 0.02 | 79 | 1012.8 |
| 20260509160317 | 78 | 178 | 1.0 | 8.0 | 0.00 | 0.07 | 0.02 | 78 | 1012.9 |
| 20260509160042 | 77 | 247 | 1.0 | 8.0 | 0.00 | 0.07 | 0.02 | 78 | 1012.8 |
| 20260509160013 | 77 | 250 | 2.0 | 8.0 | 0.00 | 0.07 | 0.02 | 78 | 1013.1 |
| 20260509155816 | 78 | 224 | 1.0 | 8.0 | 0.00 | 0.07 | 0.02 | 79 | 1012.8 |
| 20260509155319 | 77 | 266 | 1.0 | 5.0 | 0.00 | 0.07 | 0.02 | 79 | 1013.0 |
| 20260509154822 | 77 | 227 | 0.0 | 6.0 | 0.00 | 0.07 | 0.02 | 79 | 1013.0 |
| 20260509154536 | 77 | 288 | 0.0 | 6.0 | 0.00 | 0.07 | 0.02 | 79 | 1013.0 |
| 20260509154503 | 77 | 359 | 0.0 | 6.0 | 0.00 | 0.07 | 0.02 | 79 | 1013.4 |
| 20260509154342 | 77 | 67 | 1.0 | 6.0 | 0.00 | 0.07 | 0.02 | 80 | 1013.1 |
| 20260509153808 | 77 | 181 | 0.0 | 5.0 | 0.00 | 0.07 | 0.02 | 80 | 1013.1 |
| 20260509153313 | 77 | 242 | 1.0 | 4.0 | 0.00 | 0.07 | 0.02 | 81 | 1013.2 |
| 20260509153012 | 76 | 234 | 0.0 | 4.0 | 0.00 | 0.07 | 0.02 | 81 | 1013.0 |
| 20260509153005 | 76 | 236 | 0.0 | 4.0 | 0.00 | 0.07 | 0.02 | 80 | 1013.4 |
| 20260509152819 | 76 | 269 | 0.0 | 4.0 | 0.00 | 0.07 | 0.02 | 81 | 1013.0 |
| 20260509152325 | 76 | 102 | 1.0 | 5.0 | 0.00 | 0.07 | 0.02 | 80 | 1013.2 |
| 20260509151833 | 76 | 265 | 1.0 | 5.0 | 0.00 | 0.07 | 0.02 | 80 | 1013.1 |
| 20260509151538 | 75 | 36 | 1.0 | 5.0 | 0.00 | 0.07 | 0.02 | 79 | 1013.1 |
| 20260509151506 | 75 | 201 | 1.0 | 8.0 | 0.00 | 0.07 | 0.02 | 79 | 1013.5 |
| 20260509151317 | 76 | 254 | 1.0 | 8.0 | 0.00 | 0.07 | 0.02 | 79 | 1013.1 |
| 20260509150840 | 76 | 248 | 1.0 | 8.0 | 0.00 | 0.07 | 0.02 | 79 | 1013.2 |
| 20260509150310 | 76 | 223 | 0.0 | 5.0 | 0.00 | 0.07 | 0.02 | 79 | 1013.4 |
| 20260509150052 | 75 | 88 | 0.0 | 5.0 | 0.00 | 0.07 | 0.02 | 79 | 1013.4 |
| 20260509150012 | 75 | 245 | 0.0 | 8.0 | 0.00 | 0.07 | 0.02 | 79 | 1013.8 |
| 20260509145818 | 76 | 259 | 0.0 | 8.0 | 0.00 | 0.07 | 0.02 | 80 | 1013.5 |
| 20260509145324 | 76 | 213 | 1.0 | 8.0 | 0.00 | 0.07 | 0.02 | 79 | 1013.5 |
| 20260509144811 | 76 | 55 | 1.0 | 5.0 | 0.00 | 0.07 | 0.02 | 80 | 1013.4 |
| 20260509144540 | 75 | 5 | 0.0 | 4.0 | 0.00 | 0.07 | 0.02 | 80 | 1013.4 |
| 20260509144519 | 75 | 11 | 0.0 | 4.0 | 0.00 | 0.07 | 0.02 | 80 | 1013.8 |
| 20260509144341 | 76 | 84 | 0.0 | 4.0 | 0.00 | 0.07 | 0.02 | 81 | 1013.5 |
| 20260509143828 | 76 | 267 | 1.0 | 4.0 | 0.00 | 0.07 | 0.02 | 81 | 1013.6 |
| 20260509143334 | 76 | 245 | 0.0 | 2.0 | 0.00 | 0.07 | 0.02 | 83 | 1013.5 |
| 20260509143039 | 75 | 244 | 0.0 | 3.0 | 0.00 | 0.07 | 0.02 | 83 | 1013.5 |
| 20260509143007 | 75 | 247 | 0.0 | 3.0 | 0.00 | 0.07 | 0.02 | 82 | 1013.9 |
| 20260509142836 | 75 | 244 | 0.0 | 3.0 | 0.00 | 0.07 | 0.02 | 83 | 1013.5 |
| 20260509142321 | 75 | 244 | 0.0 | 3.0 | 0.00 | 0.07 | 0.02 | 83 | 1013.5 |
| 20260509141813 | 75 | 274 | 0.0 | 4.0 | 0.00 | 0.07 | 0.02 | 84 | 1013.4 |
| 20260509141558 | 75 | 47 | 0.0 | 4.0 | 0.00 | 0.07 | 0.02 | 85 | 1013.3 |
| 20260509141506 | 75 | 35 | 0.0 | 4.0 | 0.00 | 0.07 | 0.02 | 84 | 1013.6 |
| 20260509141321 | 75 | 41 | 0.0 | 4.0 | 0.00 | 0.07 | 0.02 | 85 | 1013.3 |
| 20260509140808 | 75 | 233 | 0.0 | 1.0 | 0.00 | 0.07 | 0.02 | 86 | 1013.2 |
| 20260509140315 | 75 | 233 | 0.0 | 4.0 | 0.00 | 0.07 | 0.02 | 86 | 1013.1 |
| 20260509140046 | 74 | 233 | 0.0 | 4.0 | 0.00 | 0.07 | 0.02 | 87 | 1013.0 |
| 20260509140012 | 74 | 235 | 0.0 | 4.0 | 0.00 | 0.07 | 0.02 | 86 | 1013.4 |
| 20260509135822 | 74 | 233 | 0.0 | 4.0 | 0.00 | 0.07 | 0.02 | 87 | 1013.1 |
| 20260509135328 | 74 | 232 | 0.0 | 2.0 | 0.00 | 0.07 | 0.02 | 88 | 1013.0 |
| 20260509134812 | 74 | 220 | 0.0 | 1.0 | 0.00 | 0.07 | 0.02 | 88 | 1013.1 |
| 20260509134523 | 73 | 230 | 0.0 | 0.0 | 0.00 | 0.07 | 0.02 | 88 | 1013.0 |
| 20260509134514 | 74 | 232 | 0.0 | 1.0 | 0.00 | 0.07 | 0.02 | 88 | 1013.4 |
| 20260509134318 | 74 | 302 | 0.0 | 0.0 | 0.00 | 0.07 | 0.02 | 88 | 1013.0 |
| 20260509133825 | 74 | 302 | 0.0 | 0.0 | 0.00 | 0.07 | 0.02 | 89 | 1013.1 |
| 20260509133311 | 73 | 302 | 0.0 | 0.0 | 0.00 | 0.07 | 0.02 | 88 | 1013.1 |
| 20260509133107 | 73 | 302 | 0.0 | 0.0 | 0.00 | 0.07 | 0.02 | 89 | 1013.1 |
| 20260509133018 | 73 | 309 | 0.0 | 0.0 | 0.00 | 0.07 | 0.02 | 88 | 1013.4 |
| 20260509132818 | 73 | 304 | 0.0 | 0.0 | 0.00 | 0.07 | 0.02 | 88 | 1013.1 |
| 20260509132323 | 73 | 304 | 0.0 | 0.0 | 0.00 | 0.07 | 0.02 | 88 | 1013.1 |
| 20260509131810 | 73 | 304 | 0.0 | 0.0 | 0.00 | 0.07 | 0.02 | 88 | 1013.1 |
| 20260509131544 | 72 | 304 | 0.0 | 0.0 | 0.00 | 0.07 | 0.02 | 88 | 1013.1 |
| 20260509131503 | 72 | 309 | 0.0 | 0.0 | 0.00 | 0.07 | 0.02 | 88 | 1013.5 |
| 20260509131316 | 73 | 304 | 0.0 | 0.0 | 0.00 | 0.07 | 0.02 | 89 | 1013.2 |
| 20260509130825 | 73 | 304 | 0.0 | 0.0 | 0.00 | 0.07 | 0.02 | 89 | 1013.3 |
| 20260509130312 | 73 | 304 | 0.0 | 0.0 | 0.00 | 0.07 | 0.02 | 89 | 1013.4 |
| 20260509130028 | 72 | 304 | 0.0 | 0.0 | 0.00 | 0.07 | 0.02 | 89 | 1013.5 |
| 20260509130011 | 72 | 309 | 0.0 | 0.0 | 0.00 | 0.07 | 0.02 | 88 | 1013.8 |
| 20260509125818 | 73 | 304 | 0.0 | 0.0 | 0.00 | 0.07 | 0.02 | 89 | 1013.5 |
| 20260509125322 | 73 | 304 | 0.0 | 0.0 | 0.00 | 0.07 | 0.02 | 89 | 1013.4 |
| 20260509124828 | 73 | 304 | 0.0 | 1.0 | 0.00 | 0.07 | 0.02 | 89 | 1013.2 |
| 20260509124515 | 72 | 304 | 0.0 | 1.0 | 0.00 | 0.07 | 0.02 | 89 | 1013.2 |
| 20260509124510 | 72 | 309 | 0.0 | 1.0 | 0.00 | 0.07 | 0.02 | 88 | 1013.5 |
| 20260509124335 | 72 | 304 | 0.0 | 1.0 | 0.00 | 0.07 | 0.02 | 89 | 1013.3 |
| 20260509123822 | 72 | 248 | 0.0 | 0.0 | 0.00 | 0.07 | 0.02 | 89 | 1013.2 |
| 20260509123329 | 72 | 248 | 0.0 | 0.0 | 0.00 | 0.07 | 0.02 | 89 | 1013.1 |
| 20260509123034 | 72 | 248 | 0.0 | 3.0 | 0.00 | 0.07 | 0.02 | 89 | 1013.1 |
| 20260509123017 | 72 | 251 | 0.0 | 3.0 | 0.00 | 0.07 | 0.02 | 88 | 1013.5 |
| 20260509122837 | 72 | 248 | 0.0 | 3.0 | 0.00 | 0.07 | 0.02 | 89 | 1013.1 |
| 20260509122320 | 72 | 255 | 0.0 | 3.0 | 0.00 | 0.07 | 0.02 | 89 | 1012.9 |
| 20260509121807 | 72 | 248 | 0.0 | 1.0 | 0.00 | 0.07 | 0.02 | 89 | 1012.7 |
| 20260509121556 | 71 | 247 | 0.0 | 2.0 | 0.00 | 0.07 | 0.02 | 89 | 1012.6 |
| 20260509121524 | 71 | 250 | 0.0 | 2.0 | 0.00 | 0.07 | 0.02 | 88 | 1013.0 |
| 20260509121313 | 72 | 247 | 0.0 | 2.0 | 0.00 | 0.07 | 0.02 | 89 | 1012.6 |
| 20260509120845 | 71 | 247 | 0.0 | 2.0 | 0.00 | 0.07 | 0.02 | 89 | 1012.7 |
| 20260509120313 | 71 | 196 | 0.0 | 1.0 | 0.00 | 0.07 | 0.02 | 89 | 1012.8 |
| 20260509120024 | 71 | 195 | 0.0 | 2.0 | 0.00 | 0.07 | 0.02 | 89 | 1012.8 |
| 20260509120005 | 71 | 196 | 0.0 | 2.0 | 0.00 | 0.07 | 0.02 | 88 | 1013.2 |
| 20260509115818 | 71 | 232 | 0.0 | 2.0 | 0.00 | 0.07 | 0.02 | 89 | 1012.9 |
| 20260509115323 | 71 | 226 | 0.0 | 2.0 | 0.00 | 0.07 | 0.02 | 89 | 1012.7 |
| 20260509114808 | 71 | 257 | 0.0 | 3.0 | 0.00 | 0.07 | 0.02 | 89 | 1012.9 |
| 20260509114508 | 70 | 257 | 0.0 | 3.0 | 0.00 | 0.07 | 0.02 | 89 | 1012.8 |
| 20260509114315 | 71 | 257 | 0.0 | 3.0 | 0.00 | 0.07 | 0.02 | 89 | 1012.8 |
| 20260509113822 | 70 | 254 | 0.0 | 1.0 | 0.00 | 0.07 | 0.02 | 89 | 1012.6 |
| 20260509113330 | 70 | 256 | 0.0 | 0.0 | 0.00 | 0.07 | 0.02 | 88 | 1012.6 |
| 20260509113056 | 70 | 215 | 0.0 | 0.0 | 0.00 | 0.07 | 0.02 | 88 | 1012.6 |
| 20260509113015 | 70 | 217 | 0.0 | 0.0 | 0.00 | 0.07 | 0.02 | 88 | 1013.0 |
| 20260509112838 | 70 | 215 | 0.0 | 0.0 | 0.00 | 0.07 | 0.02 | 88 | 1012.7 |
| 20260509112323 | 70 | 215 | 0.0 | 0.0 | 0.00 | 0.07 | 0.02 | 88 | 1012.5 |
| 20260509111811 | 70 | 215 | 0.0 | 0.0 | 0.00 | 0.07 | 0.02 | 88 | 1012.4 |
| 20260509111520 | 69 | 217 | 0.0 | 0.0 | 0.00 | 0.07 | 0.02 | 88 | 1012.8 |
| 20260509111516 | 69 | 215 | 0.0 | 0.0 | 0.00 | 0.07 | 0.02 | 88 | 1012.5 |
| 20260509111317 | 70 | 215 | 0.0 | 0.0 | 0.00 | 0.07 | 0.02 | 88 | 1012.5 |
| 20260509110825 | 70 | 215 | 0.0 | 0.0 | 0.00 | 0.07 | 0.02 | 88 | 1012.5 |
| 20260509110333 | 70 | 215 | 0.0 | 0.0 | 0.00 | 0.07 | 0.02 | 88 | 1012.5 |
| 20260509110045 | 69 | 215 | 0.0 | 0.0 | 0.00 | 0.07 | 0.02 | 88 | 1012.4 |
| 20260509110023 | 69 | 217 | 0.0 | 0.0 | 0.00 | 0.07 | 0.02 | 88 | 1012.7 |
| 20260509105817 | 70 | 360 | 0.0 | 0.0 | 0.00 | 0.07 | 0.02 | 88 | 1012.4 |
| 20260509105323 | 70 | 360 | 0.0 | 0.0 | 0.00 | 0.07 | 0.02 | 88 | 1012.3 |
| 20260509104810 | 70 | 265 | 0.0 | 0.0 | 0.00 | 0.07 | 0.02 | 88 | 1012.3 |
| 20260509104510 | 69 | 265 | 0.0 | 0.0 | 0.00 | 0.07 | 0.02 | 89 | 1012.2 |
| 20260509104314 | 70 | 265 | 0.0 | 0.0 | 0.00 | 0.07 | 0.02 | 88 | 1012.2 |
| 20260509103821 | 69 | 260 | 0.0 | 0.0 | 0.00 | 0.07 | 0.02 | 88 | 1012.0 |
| 20260509103328 | 69 | 259 | 0.0 | 0.0 | 0.00 | 0.07 | 0.02 | 88 | 1011.9 |
| 20260509103109 | 69 | 259 | 0.0 | 0.0 | 0.00 | 0.07 | 0.02 | 88 | 1011.8 |
| 20260509103012 | 69 | 262 | 0.0 | 0.0 | 0.00 | 0.07 | 0.02 | 88 | 1012.2 |
| 20260509102835 | 69 | 259 | 0.0 | 0.0 | 0.00 | 0.07 | 0.02 | 88 | 1012.0 |
| 20260509102320 | 69 | 259 | 0.0 | 0.0 | 0.00 | 0.07 | 0.02 | 88 | 1012.0 |
| 20260509101806 | 69 | 259 | 0.0 | 0.0 | 0.00 | 0.07 | 0.02 | 88 | 1011.9 |
| 20260509101528 | 68 | 259 | 0.0 | 0.0 | 0.00 | 0.07 | 0.02 | 88 | 1011.8 |
| 20260509101523 | 68 | 262 | 0.0 | 0.0 | 0.00 | 0.07 | 0.02 | 88 | 1012.1 |
| 20260509101314 | 68 | 259 | 0.0 | 0.0 | 0.00 | 0.07 | 0.02 | 88 | 1011.8 |
| 20260509100822 | 68 | 260 | 0.0 | 0.0 | 0.00 | 0.07 | 0.02 | 88 | 1011.8 |
| 20260509100309 | 68 | 260 | 0.0 | 0.0 | 0.00 | 0.07 | 0.02 | 88 | 1011.7 |
| 20260509100026 | 67 | 263 | 0.0 | 0.0 | 0.00 | 0.07 | 0.02 | 87 | 1011.9 |
| 20260509100008 | 67 | 260 | 0.0 | 0.0 | 0.00 | 0.07 | 0.02 | 88 | 1011.7 |
| 20260509095817 | 67 | 260 | 0.0 | 0.0 | 0.00 | 0.07 | 0.02 | 87 | 1011.7 |
| 20260509095324 | 67 | 260 | 0.0 | 0.0 | 0.00 | 0.07 | 0.02 | 87 | 1011.9 |
| 20260509094811 | 68 | 260 | 0.0 | 0.0 | 0.00 | 0.07 | 0.02 | 87 | 1011.8 |
| 20260509094552 | 67 | 260 | 0.0 | 0.0 | 0.00 | 0.07 | 0.02 | 87 | 1011.7 |
| 20260509094525 | 67 | 263 | 0.0 | 0.0 | 0.00 | 0.07 | 0.02 | 87 | 1012.1 |
| 20260509094319 | 68 | 260 | 0.0 | 0.0 | 0.00 | 0.07 | 0.02 | 87 | 1011.8 |
| 20260509093851 | 68 | 260 | 0.0 | 0.0 | 0.00 | 0.07 | 0.02 | 87 | 1011.8 |
| 20260509093338 | 68 | 260 | 0.0 | 0.0 | 0.00 | 0.07 | 0.02 | 87 | 1011.8 |
| 20260509093059 | 67 | 260 | 0.0 | 0.0 | 0.00 | 0.07 | 0.02 | 87 | 1011.6 |
| 20260509093010 | 67 | 263 | 0.0 | 0.0 | 0.00 | 0.07 | 0.02 | 87 | 1012.0 |
| 20260509092825 | 68 | 260 | 0.0 | 0.0 | 0.00 | 0.07 | 0.02 | 87 | 1011.7 |
| 20260509092312 | 68 | 260 | 0.0 | 0.0 | 0.00 | 0.07 | 0.02 | 87 | 1011.9 |
| 20260509091844 | 68 | 260 | 0.0 | 0.0 | 0.00 | 0.07 | 0.02 | 87 | 1012.0 |
| 20260509091524 | 67 | 260 | 0.0 | 0.0 | 0.00 | 0.07 | 0.02 | 87 | 1012.0 |
| 20260509091513 | 67 | 263 | 0.0 | 0.0 | 0.00 | 0.07 | 0.02 | 87 | 1012.3 |
| 20260509091331 | 68 | 260 | 0.0 | 0.0 | 0.00 | 0.07 | 0.02 | 87 | 1012.0 |
| 20260509090818 | 68 | 260 | 0.0 | 0.0 | 0.00 | 0.07 | 0.02 | 87 | 1011.7 |
| 20260509090306 | 68 | 260 | 0.0 | 0.0 | 0.00 | 0.07 | 0.02 | 87 | 1011.8 |
| 20260509090055 | 67 | 260 | 0.0 | 0.0 | 0.00 | 0.07 | 0.02 | 87 | 1012.0 |
| 20260509090032 | 67 | 263 | 0.0 | 0.0 | 0.00 | 0.07 | 0.02 | 87 | 1012.4 |
| 20260509085814 | 68 | 260 | 0.0 | 0.0 | 0.00 | 0.07 | 0.02 | 87 | 1012.0 |
| 20260509085320 | 68 | 260 | 0.0 | 0.0 | 0.00 | 0.07 | 0.02 | 87 | 1012.4 |
| 20260509084819 | 68 | 260 | 0.0 | 0.0 | 0.00 | 0.07 | 0.02 | 87 | 1012.8 |
| 20260509084526 | 67 | 260 | 0.0 | 0.0 | 0.00 | 0.07 | 0.02 | 87 | 1012.5 |
| 20260509084306 | 68 | 260 | 0.0 | 0.0 | 0.00 | 0.07 | 0.02 | 87 | 1012.2 |
| 20260509083813 | 68 | 260 | 0.0 | 0.0 | 0.00 | 0.07 | 0.02 | 87 | 1012.1 |
| 20260509083321 | 68 | 260 | 0.0 | 0.0 | 0.00 | 0.07 | 0.02 | 87 | 1012.0 |
| 20260509083035 | 67 | 263 | 0.0 | 0.0 | 0.00 | 0.07 | 0.02 | 87 | 1012.2 |
| 20260509083009 | 67 | 260 | 0.0 | 0.0 | 0.00 | 0.07 | 0.02 | 87 | 1011.9 |
| 20260509082813 | 68 | 260 | 0.0 | 0.0 | 0.00 | 0.07 | 0.02 | 87 | 1012.0 |
| 20260509082319 | 68 | 260 | 0.0 | 0.0 | 0.00 | 0.07 | 0.02 | 87 | 1011.8 |
| 20260509081807 | 68 | 260 | 0.0 | 0.0 | 0.00 | 0.07 | 0.02 | 87 | 1011.6 |
| 20260509081556 | 67 | 260 | 0.0 | 0.0 | 0.00 | 0.07 | 0.02 | 87 | 1011.7 |
| 20260509081511 | 67 | 263 | 0.0 | 0.0 | 0.00 | 0.07 | 0.02 | 87 | 1012.1 |
| 20260509081312 | 68 | 260 | 0.0 | 0.0 | 0.00 | 0.07 | 0.02 | 87 | 1012.0 |
| 20260509080844 | 68 | 260 | 0.0 | 0.0 | 0.00 | 0.07 | 0.02 | 87 | 1012.4 |
| 20260509080311 | 68 | 260 | 0.0 | 0.0 | 0.00 | 0.07 | 0.02 | 87 | 1012.5 |
| 20260509080021 | 68 | 260 | 0.0 | 0.0 | 0.00 | 0.07 | 0.02 | 87 | 1012.6 |
| 20260509080014 | 68 | 263 | 0.0 | 0.0 | 0.00 | 0.07 | 0.02 | 87 | 1012.9 |
| 20260509075820 | 68 | 260 | 0.0 | 0.0 | 0.00 | 0.07 | 0.02 | 87 | 1012.7 |
| 20260509075318 | 68 | 260 | 0.0 | 0.0 | 0.00 | 0.07 | 0.02 | 87 | 1012.8 |
| 20260509074806 | 68 | 260 | 0.0 | 0.0 | 0.00 | 0.07 | 0.02 | 87 | 1012.5 |
| 20260509074521 | 68 | 263 | 0.0 | 0.0 | 0.00 | 0.07 | 0.02 | 87 | 1012.8 |
| 20260509074504 | 68 | 260 | 0.0 | 0.0 | 0.00 | 0.07 | 0.02 | 87 | 1012.5 |
| 20260509074314 | 68 | 260 | 0.0 | 0.0 | 0.00 | 0.07 | 0.02 | 87 | 1012.5 |
| 20260509073822 | 68 | 260 | 0.0 | 0.0 | 0.00 | 0.07 | 0.02 | 87 | 1012.3 |
| 20260509073309 | 68 | 260 | 0.0 | 0.0 | 0.00 | 0.07 | 0.02 | 87 | 1012.3 |
| 20260509073052 | 67 | 260 | 0.0 | 0.0 | 0.00 | 0.07 | 0.02 | 87 | 1012.4 |
| 20260509073030 | 67 | 263 | 0.0 | 0.0 | 0.00 | 0.07 | 0.02 | 86 | 1012.8 |
| 20260509072817 | 68 | 260 | 0.0 | 0.0 | 0.00 | 0.07 | 0.02 | 87 | 1012.6 |
| 20260509072324 | 67 | 260 | 0.0 | 1.0 | 0.00 | 0.07 | 0.02 | 87 | 1012.5 |
| 20260509071812 | 67 | 260 | 0.0 | 1.0 | 0.00 | 0.07 | 0.02 | 87 | 1012.2 |
| 20260509071547 | 67 | 202 | 0.0 | 1.0 | 0.00 | 0.07 | 0.02 | 86 | 1012.0 |
| 20260509071534 | 67 | 310 | 0.0 | 0.0 | 0.00 | 0.07 | 0.02 | 86 | 1012.3 |
| 20260509071319 | 67 | 305 | 0.0 | 0.0 | 0.00 | 0.07 | 0.02 | 86 | 1012.0 |
| 20260509070825 | 67 | 307 | 0.0 | 0.0 | 0.00 | 0.07 | 0.02 | 86 | 1012.3 |
| 20260509070311 | 67 | 307 | 0.0 | 0.0 | 0.00 | 0.07 | 0.02 | 86 | 1012.3 |
| 20260509070038 | 66 | 307 | 0.0 | 0.0 | 0.00 | 0.07 | 0.02 | 86 | 1012.4 |
| 20260509070012 | 66 | 312 | 0.0 | 0.0 | 0.00 | 0.07 | 0.02 | 86 | 1012.8 |
| 20260509065844 | 67 | 307 | 0.0 | 0.0 | 0.00 | 0.07 | 0.02 | 86 | 1012.5 |
| 20260509065309 | 67 | 307 | 0.0 | 0.0 | 0.00 | 0.07 | 0.02 | 86 | 1012.5 |
| 20260509064816 | 67 | 307 | 0.0 | 0.0 | 0.00 | 0.07 | 0.02 | 86 | 1012.7 |
| 20260509064547 | 67 | 307 | 0.0 | 0.0 | 0.00 | 0.07 | 0.02 | 86 | 1012.8 |
| 20260509064502 | 67 | 312 | 0.0 | 0.0 | 0.00 | 0.07 | 0.02 | 86 | 1013.2 |
| 20260509064321 | 67 | 307 | 0.0 | 0.0 | 0.00 | 0.07 | 0.02 | 86 | 1012.9 |
| 20260509063828 | 67 | 307 | 0.0 | 0.0 | 0.00 | 0.07 | 0.02 | 86 | 1013.0 |
| 20260509063315 | 67 | 307 | 0.0 | 0.0 | 0.00 | 0.07 | 0.02 | 86 | 1013.2 |
| 20260509063016 | 67 | 307 | 0.0 | 0.0 | 0.00 | 0.07 | 0.02 | 86 | 1013.2 |
| 20260509063004 | 67 | 312 | 0.0 | 0.0 | 0.00 | 0.07 | 0.02 | 85 | 1013.5 |
| 20260509062824 | 67 | 307 | 0.0 | 0.0 | 0.00 | 0.07 | 0.02 | 86 | 1013.2 |
| 20260509062331 | 67 | 307 | 0.0 | 0.0 | 0.00 | 0.07 | 0.02 | 86 | 1013.2 |
| 20260509061844 | 67 | 307 | 0.0 | 0.0 | 0.00 | 0.07 | 0.02 | 86 | 1013.2 |
| 20260509061511 | 67 | 307 | 0.0 | 0.0 | 0.00 | 0.07 | 0.02 | 86 | 1013.0 |
| 20260509061507 | 67 | 312 | 0.0 | 0.0 | 0.00 | 0.07 | 0.02 | 85 | 1013.2 |
| 20260509061310 | 67 | 307 | 0.0 | 0.0 | 0.00 | 0.07 | 0.02 | 86 | 1012.9 |
| 20260509060818 | 67 | 307 | 0.0 | 0.0 | 0.00 | 0.07 | 0.02 | 86 | 1013.2 |
| 20260509060326 | 67 | 307 | 0.0 | 0.0 | 0.00 | 0.07 | 0.02 | 86 | 1013.4 |
| 20260509060112 | 67 | 307 | 0.0 | 0.0 | 0.00 | 0.07 | 0.02 | 86 | 1013.2 |
| 20260509060010 | 67 | 312 | 0.0 | 0.0 | 0.00 | 0.07 | 0.02 | 85 | 1013.5 |
| 20260509055815 | 67 | 307 | 0.0 | 0.0 | 0.00 | 0.07 | 0.02 | 86 | 1013.2 |
| 20260509055322 | 67 | 307 | 0.0 | 0.0 | 0.00 | 0.07 | 0.02 | 85 | 1013.0 |
| 20260509054830 | 67 | 307 | 0.0 | 0.0 | 0.00 | 0.07 | 0.02 | 85 | 1013.0 |
| 20260509054541 | 67 | 307 | 0.0 | 0.0 | 0.00 | 0.07 | 0.02 | 85 | 1012.9 |
| 20260509054503 | 67 | 312 | 0.0 | 0.0 | 0.00 | 0.07 | 0.02 | 85 | 1013.2 |
| 20260509054336 | 67 | 307 | 0.0 | 0.0 | 0.00 | 0.07 | 0.02 | 85 | 1012.9 |
| 20260509053846 | 67 | 307 | 0.0 | 0.0 | 0.00 | 0.07 | 0.02 | 85 | 1013.0 |
| 20260509053311 | 67 | 306 | 0.0 | 0.0 | 0.00 | 0.07 | 0.02 | 85 | 1013.1 |
| 20260509053047 | 67 | 306 | 0.0 | 0.0 | 0.00 | 0.07 | 0.02 | 85 | 1013.2 |
| 20260509053004 | 67 | 311 | 0.0 | 0.0 | 0.00 | 0.07 | 0.02 | 85 | 1013.6 |
| 20260509052818 | 67 | 306 | 0.0 | 0.0 | 0.00 | 0.07 | 0.02 | 85 | 1013.4 |
| 20260509052322 | 68 | 306 | 0.0 | 0.0 | 0.00 | 0.07 | 0.02 | 85 | 1013.7 |
| 20260509051809 | 68 | 306 | 0.0 | 0.0 | 0.01 | 0.07 | 0.02 | 85 | 1014.2 |
| 20260509051533 | 67 | 306 | 0.0 | 0.0 | 0.01 | 0.07 | 0.02 | 85 | 1014.1 |
| 20260509051505 | 67 | 311 | 0.0 | 0.0 | 0.01 | 0.07 | 0.02 | 84 | 1014.3 |
| 20260509051341 | 68 | 306 | 0.0 | 0.0 | 0.02 | 0.07 | 0.02 | 85 | 1014.0 |
| 20260509050827 | 68 | 306 | 0.0 | 0.0 | 0.02 | 0.07 | 0.02 | 85 | 1013.9 |
| 20260509050332 | 68 | 306 | 0.0 | 0.0 | 0.02 | 0.07 | 0.02 | 85 | 1014.1 |
| 20260509050056 | 67 | 306 | 0.0 | 0.0 | 0.02 | 0.07 | 0.02 | 85 | 1014.1 |
| 20260509050017 | 67 | 311 | 0.0 | 0.0 | 0.02 | 0.07 | 0.02 | 84 | 1014.4 |
| 20260509045839 | 68 | 306 | 0.0 | 0.0 | 0.02 | 0.07 | 0.02 | 85 | 1014.1 |
| 20260509045323 | 68 | 306 | 0.0 | 0.0 | 0.03 | 0.07 | 0.02 | 84 | 1014.0 |
| 20260509044810 | 68 | 306 | 0.0 | 0.0 | 0.03 | 0.07 | 0.02 | 84 | 1013.9 |
| 20260509044518 | 68 | 306 | 0.0 | 0.0 | 0.04 | 0.07 | 0.02 | 84 | 1013.9 |
| 20260509044512 | 68 | 311 | 0.0 | 0.0 | 0.04 | 0.07 | 0.02 | 84 | 1014.4 |
| 20260509044316 | 68 | 306 | 0.0 | 0.0 | 0.04 | 0.07 | 0.02 | 84 | 1014.2 |
| 20260509043824 | 68 | 306 | 0.0 | 0.0 | 0.04 | 0.07 | 0.02 | 84 | 1014.3 |
| 20260509043310 | 68 | 306 | 0.0 | 0.0 | 0.05 | 0.07 | 0.02 | 84 | 1014.1 |
| 20260509043005 | 68 | 306 | 0.0 | 0.0 | 0.05 | 0.07 | 0.02 | 84 | 1014.1 |
| 20260509043003 | 68 | 311 | 0.0 | 0.0 | 0.05 | 0.07 | 0.02 | 84 | 1014.3 |
| 20260509042817 | 68 | 306 | 0.0 | 0.0 | 0.05 | 0.07 | 0.02 | 84 | 1014.1 |
| 20260509042324 | 68 | 306 | 0.0 | 0.0 | 0.05 | 0.07 | 0.02 | 84 | 1014.1 |
| 20260509041811 | 68 | 306 | 0.0 | 2.0 | 0.04 | 0.06 | 0.01 | 84 | 1014.2 |
| 20260509041549 | 68 | 306 | 0.0 | 4.0 | 0.05 | 0.06 | 0.01 | 83 | 1014.1 |
| 20260509041505 | 68 | 312 | 0.0 | 4.0 | 0.05 | 0.06 | 0.01 | 83 | 1014.4 |
| 20260509041318 | 68 | 248 | 0.0 | 4.0 | 0.04 | 0.05 | 0.00 | 83 | 1014.1 |
| 20260509040825 | 68 | 234 | 1.0 | 6.0 | 0.04 | 0.05 | 0.00 | 83 | 1013.7 |
| 20260509040310 | 69 | 34 | 0.0 | 6.0 | 0.05 | 0.05 | 0.00 | 83 | 1014.2 |
| 20260509040035 | 68 | 261 | 0.0 | 3.0 | 0.05 | 0.05 | 0.00 | 83 | 1014.3 |
| 20260509040004 | 68 | 264 | 0.0 | 3.0 | 0.05 | 0.05 | 0.00 | 83 | 1014.7 |
| 20260509035834 | 69 | 217 | 0.0 | 3.0 | 0.05 | 0.05 | 0.00 | 83 | 1014.5 |
| 20260509035315 | 69 | 169 | 0.0 | 2.0 | 0.04 | 0.04 | 0.04 | 83 | 1014.7 |
| 20260509034818 | 69 | 244 | 0.0 | 2.0 | 0.04 | 0.04 | 0.04 | 83 | 1014.8 |
| 20260509034550 | 69 | 250 | 0.0 | 3.0 | 0.03 | 0.03 | 0.03 | 83 | 1015.0 |
| 20260509034511 | 69 | 253 | 0.0 | 3.0 | 0.03 | 0.03 | 0.03 | 83 | 1015.4 |
| 20260509034322 | 69 | 239 | 0.0 | 3.0 | 0.03 | 0.03 | 0.03 | 83 | 1015.1 |
| 20260509033825 | 69 | 277 | 0.0 | 3.0 | 0.03 | 0.03 | 0.03 | 83 | 1015.2 |
| 20260509033348 | 69 | 253 | 0.0 | 3.0 | 0.02 | 0.02 | 0.02 | 83 | 1015.1 |
| 20260509033014 | 69 | 308 | 0.0 | 3.0 | 0.02 | 0.02 | 0.02 | 82 | 1015.4 |
| 20260509033010 | 69 | 244 | 0.0 | 3.0 | 0.02 | 0.02 | 0.02 | 83 | 1015.1 |
| 20260509032811 | 70 | 276 | 0.0 | 3.0 | 0.02 | 0.02 | 0.02 | 83 | 1015.0 |
| 20260509032313 | 70 | 275 | 0.0 | 5.0 | 0.02 | 0.02 | 0.02 | 83 | 1014.9 |
| 20260509031817 | 70 | 284 | 1.0 | 5.0 | 0.02 | 0.02 | 0.02 | 83 | 1015.0 |
| 20260509031553 | 69 | 200 | 0.0 | 1.0 | 0.01 | 0.01 | 0.01 | 82 | 1015.1 |
| 20260509031507 | 69 | 1 | 0.0 | 1.0 | 0.01 | 0.01 | 0.01 | 82 | 1015.6 |
| 20260509031321 | 70 | 22 | 0.0 | 1.0 | 0.01 | 0.01 | 0.01 | 82 | 1015.3 |
| 20260509030824 | 70 | 255 | 0.0 | 0.0 | 0.01 | 0.01 | 0.01 | 82 | 1015.6 |
| 20260509030347 | 70 | 246 | 0.0 | 0.0 | 0.00 | 0.00 | 0.00 | 82 | 1015.8 |
| 20260509030014 | 69 | 246 | 0.0 | 5.0 | 0.00 | 0.00 | 0.00 | 82 | 1016.0 |
| 20260509025830 | 70 | 243 | 0.0 | 5.0 | 0.00 | 0.00 | 0.00 | 82 | 1015.9 |
| 20260509025313 | 70 | 243 | 0.0 | 5.0 | 0.00 | 0.00 | 0.00 | 82 | 1015.8 |
| 20260509024815 | 70 | 255 | 0.0 | 0.0 | 0.00 | 0.00 | 0.00 | 82 | 1015.9 |
| 20260509024601 | 69 | 255 | 0.0 | 0.0 | 0.00 | 0.00 | 0.00 | 81 | 1015.8 |
| 20260509024319 | 70 | 255 | 0.0 | 0.0 | 0.00 | 0.00 | 0.00 | 81 | 1015.9 |
| 20260509023823 | 70 | 255 | 0.0 | 0.0 | 0.00 | 0.00 | 0.00 | 81 | 1015.9 |
| 20260509023327 | 70 | 255 | 0.0 | 0.0 | 0.00 | 0.00 | 0.00 | 81 | 1016.1 |
| 20260509023047 | 69 | 254 | 0.0 | 0.0 | 0.00 | 0.00 | 0.00 | 81 | 1016.0 |
| 20260509022831 | 70 | 254 | 0.0 | 0.0 | 0.00 | 0.00 | 0.00 | 81 | 1016.0 |
| 20260509022314 | 70 | 254 | 0.0 | 0.0 | 0.00 | 0.00 | 0.00 | 81 | 1016.0 |
| 20260509021820 | 70 | 254 | 0.0 | 0.0 | 0.00 | 0.00 | 0.00 | 81 | 1016.1 |
| 20260509021535 | 69 | 257 | 0.0 | 0.0 | 0.00 | 0.00 | 0.00 | 80 | 1016.2 |
| 20260509021530 | 69 | 254 | 0.0 | 0.0 | 0.00 | 0.00 | 0.00 | 81 | 1015.9 |
| 20260509021322 | 70 | 254 | 0.0 | 0.0 | 0.00 | 0.00 | 0.00 | 81 | 1015.8 |
| 20260509020817 | 70 | 254 | 0.0 | 0.0 | 0.00 | 0.00 | 0.00 | 81 | 1015.8 |
| 20260509020341 | 70 | 254 | 0.0 | 0.0 | 0.00 | 0.00 | 0.00 | 81 | 1015.7 |
| 20260509020057 | 69 | 254 | 0.0 | 0.0 | 0.00 | 0.00 | 0.00 | 81 | 1015.7 |
| 20260509020004 | 69 | 257 | 0.0 | 0.0 | 0.00 | 0.00 | 0.00 | 80 | 1016.0 |
| 20260509015825 | 70 | 254 | 0.0 | 0.0 | 0.00 | 0.00 | 0.00 | 80 | 1015.7 |
| 20260509015327 | 70 | 254 | 0.0 | 0.0 | 0.00 | 0.00 | 0.00 | 81 | 1015.7 |
| 20260509014831 | 70 | 254 | 0.0 | 0.0 | 0.00 | 0.00 | 0.00 | 80 | 1015.5 |
| 20260509014547 | 69 | 238 | 0.0 | 0.0 | 0.00 | 0.00 | 0.00 | 81 | 1015.3 |
| 20260509014505 | 69 | 240 | 0.0 | 0.0 | 0.00 | 0.00 | 0.00 | 80 | 1015.6 |
| 20260509014315 | 70 | 238 | 0.0 | 0.0 | 0.00 | 0.00 | 0.00 | 81 | 1015.2 |
| 20260509013838 | 70 | 238 | 0.0 | 0.0 | 0.00 | 0.00 | 0.00 | 80 | 1014.9 |
| 20260509013321 | 70 | 238 | 0.0 | 2.0 | 0.00 | 0.00 | 0.00 | 81 | 1014.8 |
| 20260509013100 | 69 | 238 | 0.0 | 2.0 | 0.00 | 0.00 | 0.00 | 80 | 1014.7 |
| 20260509013008 | 69 | 240 | 0.0 | 2.0 | 0.00 | 0.00 | 0.00 | 80 | 1015.1 |
| 20260509012826 | 70 | 238 | 0.0 | 2.0 | 0.00 | 0.00 | 0.00 | 81 | 1014.6 |
| 20260509012329 | 70 | 241 | 0.0 | 2.0 | 0.00 | 0.00 | 0.00 | 80 | 1014.6 |
| 20260509011812 | 70 | 211 | 0.0 | 1.0 | 0.00 | 0.00 | 0.00 | 80 | 1014.7 |
| 20260509011543 | 69 | 211 | 0.0 | 1.0 | 0.00 | 0.00 | 0.00 | 80 | 1014.7 |
| 20260509011515 | 69 | 212 | 0.0 | 1.0 | 0.00 | 0.00 | 0.00 | 80 | 1015.1 |
| 20260509011315 | 70 | 211 | 0.0 | 1.0 | 0.00 | 0.00 | 0.00 | 80 | 1014.7 |
| 20260509010819 | 70 | 214 | 0.0 | 0.0 | 0.00 | 0.00 | 0.00 | 80 | 1014.8 |
| 20260509010322 | 70 | 227 | 0.0 | 2.0 | 0.00 | 0.00 | 0.00 | 80 | 1014.9 |
| 20260509010029 | 70 | 212 | 0.0 | 2.0 | 0.00 | 0.00 | 0.00 | 80 | 1014.9 |
| 20260509010018 | 69 | 213 | 0.0 | 2.0 | 0.00 | 0.00 | 0.00 | 80 | 1015.2 |
| 20260509005854 | 70 | 263 | 0.0 | 2.0 | 0.00 | 0.00 | 0.00 | 80 | 1014.9 |
| 20260509005316 | 70 | 263 | 0.0 | 2.0 | 0.00 | 0.00 | 0.00 | 80 | 1014.7 |
| 20260509004819 | 70 | 200 | 0.0 | 2.0 | 0.00 | 0.00 | 0.00 | 80 | 1014.5 |
| 20260509004600 | 69 | 200 | 0.0 | 2.0 | 0.00 | 0.00 | 0.00 | 80 | 1014.5 |
| 20260509004505 | 69 | 201 | 0.0 | 2.0 | 0.00 | 0.00 | 0.00 | 79 | 1014.9 |
| 20260509004323 | 70 | 219 | 0.0 | 2.0 | 0.00 | 0.00 | 0.00 | 80 | 1014.7 |
| 20260509003827 | 70 | 191 | 0.0 | 2.0 | 0.00 | 0.00 | 0.00 | 80 | 1014.8 |
| 20260509003331 | 70 | 293 | 0.0 | 2.0 | 0.00 | 0.00 | 0.00 | 80 | 1014.7 |
| 20260509003041 | 69 | 204 | 0.0 | 1.0 | 0.00 | 0.00 | 0.00 | 80 | 1014.6 |
| 20260509003010 | 69 | 187 | 0.0 | 1.0 | 0.00 | 0.00 | 0.00 | 79 | 1015.0 |
| 20260509002836 | 70 | 122 | 0.0 | 2.0 | 0.00 | 0.00 | 0.00 | 80 | 1014.6 |
| 20260509002336 | 70 | 198 | 0.0 | 3.0 | 0.00 | 0.00 | 0.00 | 79 | 1014.5 |
| 20260509001855 | 70 | 152 | 1.0 | 4.0 | 0.00 | 0.00 | 0.00 | 79 | 1014.5 |
| 20260509001547 | 70 | 229 | 0.0 | 4.0 | 0.00 | 0.00 | 0.00 | 79 | 1014.3 |
| 20260509001513 | 69 | 231 | 0.0 | 4.0 | 0.00 | 0.00 | 0.00 | 79 | 1014.5 |
| 20260509001338 | 70 | 194 | 0.0 | 4.0 | 0.00 | 0.00 | 0.00 | 79 | 1014.2 |
| 20260509000842 | 70 | 237 | 0.0 | 3.0 | 0.00 | 0.00 | 0.00 | 79 | 1014.3 |
| 20260509000348 | 70 | 184 | 0.0 | 2.0 | 0.00 | 0.00 | 0.00 | 79 | 1014.3 |
| 20260509000035 | 70 | 229 | 0.0 | 2.0 | 0.00 | 0.00 | 0.00 | 79 | 1014.4 |
| 20260509000015 | 70 | 247 | 0.0 | 2.0 | 0.00 | 0.00 | 0.00 | 78 | 1014.6 |
| 20260508235830 | 70 | 245 | 1.0 | 2.0 | 0.00 | 0.00 | 0.00 | 79 | 1014.4 |
| 20260508235351 | 70 | 201 | 0.0 | 2.0 | 0.00 | 0.00 | 0.00 | 79 | 1014.4 |
| 20260508234833 | 70 | 211 | 0.0 | 2.0 | 0.00 | 0.00 | 0.00 | 79 | 1014.4 |
| 20260508234557 | 70 | 211 | 0.0 | 4.0 | 0.00 | 0.00 | 0.00 | 79 | 1014.3 |
| 20260508234522 | 70 | 212 | 0.0 | 4.0 | 0.00 | 0.00 | 0.00 | 78 | 1014.7 |
| 20260508234336 | 70 | 212 | 0.0 | 4.0 | 0.00 | 0.00 | 0.00 | 78 | 1014.4 |
| 20260508233839 | 70 | 198 | 1.0 | 4.0 | 0.00 | 0.00 | 0.00 | 78 | 1014.4 |
| 20260508233343 | 70 | 203 | 0.0 | 3.0 | 0.00 | 0.00 | 0.00 | 78 | 1014.2 |
| 20260508233050 | 70 | 210 | 0.0 | 3.0 | 0.00 | 0.00 | 0.00 | 78 | 1014.0 |
| 20260508233003 | 70 | 193 | 0.0 | 3.0 | 0.00 | 0.00 | 0.00 | 78 | 1014.3 |
| 20260508232828 | 70 | 223 | 0.0 | 2.0 | 0.00 | 0.00 | 0.00 | 78 | 1014.0 |
| 20260508232331 | 70 | 319 | 0.0 | 1.0 | 0.00 | 0.00 | 0.00 | 78 | 1013.9 |
| 20260508231835 | 70 | 9 | 0.0 | 1.0 | 0.00 | 0.00 | 0.00 | 78 | 1013.7 |
| 20260508231525 | 70 | 40 | 0.0 | 3.0 | 0.00 | 0.00 | 0.00 | 78 | 1013.8 |
| 20260508231509 | 70 | 34 | 0.0 | 4.0 | 0.00 | 0.00 | 0.00 | 78 | 1014.2 |
| 20260508231339 | 70 | 261 | 0.0 | 4.0 | 0.00 | 0.00 | 0.00 | 78 | 1014.0 |
| 20260508230843 | 70 | 190 | 0.0 | 4.0 | 0.00 | 0.00 | 0.00 | 78 | 1014.1 |
| 20260508230346 | 70 | 236 | 0.0 | 2.0 | 0.00 | 0.00 | 0.00 | 78 | 1014.0 |
| 20260508230018 | 70 | 238 | 0.0 | 1.0 | 0.00 | 0.00 | 0.00 | 78 | 1014.1 |
| 20260508230009 | 70 | 240 | 0.0 | 1.0 | 0.00 | 0.00 | 0.00 | 78 | 1014.4 |
| 20260508225831 | 70 | 265 | 0.0 | 1.0 | 0.00 | 0.00 | 0.00 | 78 | 1014.1 |
| 20260508225334 | 70 | 269 | 0.0 | 2.0 | 0.00 | 0.00 | 0.00 | 78 | 1014.0 |
| 20260508224837 | 71 | 257 | 0.0 | 3.0 | 0.00 | 0.00 | 0.00 | 78 | 1013.8 |
| 20260508224602 | 70 | 256 | 0.0 | 3.0 | 0.00 | 0.00 | 0.00 | 78 | 1013.7 |
| 20260508224517 | 70 | 273 | 0.0 | 3.0 | 0.00 | 0.00 | 0.00 | 77 | 1014.1 |
| 20260508224501 | 70 | 269 | 0.0 | 3.0 | 0.00 | 0.00 | 0.00 | 78 | 1013.7 |
| 20260508224340 | 71 | 246 | 0.0 | 3.0 | 0.00 | 0.00 | 0.00 | 78 | 1013.7 |